#timestamp,LO_Frequency,Hit,StdDev 
1509310815.9,286046993.8,N
1509310835.7,286046995.3,N
1509310855.5,286046997.8,N
1509310875.4,286046996.0,N
1509310895.2,286046996.8,N
1509310915.0,286047001.1,N
1509310915.9,286047001.1,N
1509310935.8,286047000.7,N
1509310955.6,286046993.5,N
1509310975.4,286046996.2,N
1509310995.3,286046989.0,N
1509311015.1,286046988.4,Y
1509311035.9,286046989.1,P
1509311055.7,286046994.5,N
1509311075.5,286046994.1,N
1509311095.4,286046994.0,N
1509311115.2,286046994.3,N
1509311135.0,286046993.6,N
1509311135.9,286046993.6,N
1509311155.8,286046997.0,N
1509311175.6,286046997.5,N
1509311195.4,286046997.0,N
1509311215.3,286046995.4,N
1509311235.1,286047001.0,N
1509311236.0,286047001.0,N
1509311255.8,286046999.3,N
1509311275.7,286046995.8,N
1509311295.5,286046991.4,N
1509311315.3,286046990.6,Y
1509311335.2,286046996.2,P
1509311355.0,286046997.3,P
1509311355.9,286046997.3,P
1509311375.8,286046995.4,Y
1509311395.6,286047002.3,P
1509311415.4,286047000.4,N
1509311435.3,286047001.1,N
1509311455.1,286046995.4,N
1509311475.8,286046997.6,N
1509311495.7,286046996.4,N
1509311515.5,286046993.0,N
1509311535.3,286046991.1,Y
1509311555.2,286046992.6,P
1509311575.0,286046993.9,N
1509311575.9,286046993.9,N
1509311595.7,286046996.1,N
1509311615.6,286046999.1,N
1509311635.4,286046999.4,N
1509311655.3,286046999.5,N
1509311675.1,286046999.8,N
1509311676.0,286046999.8,N
1509311695.8,286047002.6,N
1509311715.7,286047003.6,N
1509311735.5,286047002.3,N
1509311755.3,286046998.2,N
1509311775.2,286046998.5,N
1509311795.9,286046999.2,N
1509311815.7,286046995.9,N
1509311835.6,286046994.5,N
1509311855.4,286046994.4,N
1509311875.2,286046992.7,N
1509311895.1,286046994.2,N
1509311896.0,286046994.2,N
1509311915.8,286046990.6,N
1509311935.6,286046991.2,N
1509311955.5,286046988.6,Y
1509311975.3,286046991.4,P
1509311995.1,286046989.4,P
1509312015.9,286046985.6,P
1509312035.7,286046984.0,Y
1509312055.6,286046991.8,P
1509312075.4,286046991.9,P
1509312095.2,286046995.8,P
1509312115.1,286046998.9,N
1509312116.0,286046998.9,N
1509312135.8,286047000.8,N
1509312155.6,286046999.8,N
1509312175.5,286047000.3,N
1509312195.3,286047002.3,N
1509312215.1,286047002.8,N
1509312235.9,286047002.7,N
1509312255.7,286046999.9,N
1509312275.5,286047002.0,N
1509312295.4,286047003.5,N
1509312315.2,286047005.8,N
1509312335.0,286047008.0,N
1509312335.9,286047008.0,N
1509312355.8,286047008.1,N
1509312375.6,286047008.0,N
1509312395.4,286047008.2,N
1509312415.3,286047010.3,N
1509312435.1,286047012.0,N
1509312455.8,286047010.1,N
1509312475.7,286047014.3,N
1509312495.5,286047018.8,Y
1509312515.3,286047020.4,P
1509312535.2,286047022.5,N
1509312555.0,286047026.4,P
1509312555.9,286047026.4,N
1509312575.8,286047024.5,N
1509312595.6,286047024.6,Y
1509312615.4,286046999.1,P
1509312635.3,286047000.8,N
1509312655.1,286046998.6,N
1509312675.8,286046997.0,N
1509312695.7,286046998.6,N
1509312715.5,286046999.4,N
1509312735.3,286046999.1,N
1509312755.2,286047004.2,N
1509312775.0,286047001.9,N
1509312775.9,286047001.9,N
1509312795.7,286047002.0,N
1509312815.6,286046998.7,N
1509312835.4,286047002.3,N
1509312855.2,286047005.8,N
1509312875.1,286047006.2,N
1509312876.0,286047006.2,N
1509312895.8,286047008.7,N
1509312915.6,286047004.9,N
1509312935.5,286047005.2,N
1509312955.3,286047006.3,N
1509312975.1,286047005.1,N
1509312995.9,286047005.7,N
1509313015.7,286047004.6,N
1509313035.5,286047004.9,N
1509313055.4,286047005.5,N
1509313075.2,286047006.4,N
1509313095.0,286047006.6,N
1509313096.0,286047006.6,N
1509313115.8,286047004.9,N
1509313135.6,286047005.7,N
1509313155.5,286047005.3,N
1509313175.3,286046998.6,N
1509313195.1,286047002.2,N
1509313215.9,286047005.7,N
1509313235.7,286047002.0,N
1509313255.5,286047003.9,N
1509313275.4,286047003.9,N
1509313295.2,286047001.9,N
1509313315.0,286046999.4,N
1509313315.9,286046999.4,N
1509313335.8,286046997.4,N
1509313355.6,286046996.8,N
1509313375.4,286046997.9,N
1509313395.3,286046995.6,N
1509313415.1,286046996.1,N
1509313435.8,286046995.4,N
1509313455.7,286046995.9,N
1509313475.5,286046991.9,N
1509313495.3,286046992.8,N
1509313515.2,286046990.9,N
1509313535.9,286046987.8,N
1509313555.7,286046985.8,N
1509313575.6,286046984.4,N
1509313595.4,286046982.9,N
1509313615.2,286046980.8,N
1509313635.1,286046986.5,N
1509313636.0,286046986.5,N
1509313655.8,286046982.5,N
1509313675.6,286046983.6,N
1509313695.5,286046983.5,N
1509313715.3,286046983.5,N
1509313735.1,286046981.7,N
1509313755.9,286046981.8,N
1509313775.7,286046981.6,N
1509313795.5,286046988.0,N
1509313815.4,286046987.7,N
1509313835.2,286046987.4,N
1509313855.0,286046987.5,N
1509313856.0,286046987.5,N
1509313875.8,286046985.7,N
1509313895.6,286046986.0,N
1509313915.5,286046986.9,N
1509313935.3,286046989.6,N
1509313955.1,286046986.9,N
1509313975.9,286046990.3,N
1509313995.7,286046990.3,N
1509314015.5,286046992.5,N
1509314035.4,286046991.5,N
1509314055.2,286046993.0,N
1509314075.0,286046997.0,N
1509314075.9,286046997.0,N
1509314095.8,286046998.6,N
1509314115.6,286047000.0,N
1509314135.4,286046998.4,N
1509314155.3,286046997.2,N
1509314175.1,286047001.0,N
1509314176.0,286047001.0,N
1509314195.8,286047001.9,N
1509314215.7,286047001.6,N
1509314235.5,286047001.1,N
1509314255.3,286046999.5,N
1509314275.2,286046996.8,N
1509314295.9,286046998.0,N
1509314315.7,286046998.5,N
1509314335.6,286046999.6,N
1509314355.4,286047004.0,N
1509314375.2,286047004.8,N
1509314395.1,286047005.4,N
1509314396.0,286047005.4,N
